Regional Weather Roundup
Issued by NWS Bismarck, ND

Home | Current Version | Previous Version | Text Only | Print | Product List | Glossary On
Versions: 1 2 3 4 5 6 7 8 9 10 11 12 13 14 15 16 17 18 19 20 21 22 23 24 25 26 27 28 29 30 31 32 33 34 35 36 37 38 39 40 41 42 43 44 45 46 47 48 49 50
000
ASUS43 KBIS 191510
RWRBIS

NWR BROADCAST TEXT
NATIONAL WEATHER SERVICE BISMARCK ND
900 AM CST SUN FEB 19 2017

NOTE: "FAIR" INDICATES FEW OR NO CLOUDS BELOW 12,000 FEET WITH NO
SIGNIFICANT WEATHER AND/OR OBSTRUCTIONS TO VISIBILITY.


CITY           SKY/WX    TMP DP  RH WIND       PRES   REMARKS
WILLISTON      CLOUDY    33  31  92 E6        29.55F
MINOT          CLOUDY    35  32  88 E10       29.61F
MINOT AFB      CLOUDY    33  31  91 E15       29.61S
BISMARCK       FAIR      36  33  89 E8        29.59F
DICKINSON      FOG       29  28  96 E9        29.50F VSB 1/4
GARRISON         N/A     33  32  96 E6        29.58R
HETTINGER ARPT FAIR      32  28  85 E3        29.54S
JAMESTOWN      FAIR      36  34  92 SE9       29.67F
CARRINGTON     FAIR      36  34  93 SE14      29.67S
HAZEN            N/A    N/A N/A N/A NE3       29.59R
MANDAN         FAIR      34  32  93 E10       29.58F
RUGBY            N/A     32  32 100 E20       29.66F
STANLEY        FOG       32  32 100 E16       29.61S VSB<1/4
TIOGA          FOG       30  30 100 E17       29.59R VSB 1/4 WCI  18
WATFORD CITY   FOG       32  32 100 E12       29.55F VSB 1/4
$$

CITY           SKY/WX    TMP DP  RH WIND       PRES   REMARKS
GRAND FORKS    CLOUDY    38  31  76 SE16      29.76F
GRAND FORKS AF FAIR      36  33  90 SE8       29.76F
DEVILS LAKE    CLOUDY    35  33  92 E16       29.70S
FARGO          FAIR      43  38  82 SE14      29.76F
CAVALIER       FAIR      34  32  93 E7        29.81F
GRAFTON        CLOUDY    34  32  93 E10       29.81F
GWINNER        FAIR      37  36  93 E8        29.72F
ROLLA          PTSUNNY   32  32 100 E14G20    29.72F
$$

CITY           SKY/WX    TMP DP  RH WIND       PRES   REMARKS
ABERDEEN       FAIR      41  34  76 S8        29.69F
MOBRIDGE       FAIR      39  32  76 SE10      29.55F
BUFFALO          N/A     39  32  76 S6        29.45S
RAPID CITY     FAIR      37  30  75 CALM      29.55F
GLASGOW        CLOUDY    31  30  96 E18G25    29.46R FOG     WCI  19
SIDNEY         FOG       32  31  96 NE6       29.53S VSB 1/2
WOLF POINT     FOG       32  30  92 E13       29.51S VSB 3/4
GLENDIVE       FAIR      30  28  93 NE8       29.48F FOG
MILES CITY     FAIR      33  29  85 E3        29.45F
BAKER          FAIR      32  29  88 E7        29.49R
$$

CITY           SKY/WX    TMP DP  RH WIND       PRES   REMARKS
BILLINGS       MOCLDY    40  32  73 W10       29.44R
GREAT FALLS    CLOUDY    43  33  68 SW13      29.40R
REGINA         MOCLDY    32  27  80 SE24G30   29.59S WCI  19
ESTEVAN        CLOUDY    32  28  86 E21G29    29.61F WCI  20
$$




USA.gov is the U.S. government's official web portal to all federal, state and local government web resources and services.